contact:dominique.lefevre@mio.osupytheas.fr, maurice.libes@osupytheas.fr
Project:EMSO Ligure-ouest http://www.emso-fr.org/EMSO-France
Sensor Aquadopp, line 13 Serial AQD14315 
DOI : "https://doi.org/10.17882/74513; https://doi.org/10.17882/83244" 
Title:EMSO Ligure Ouest : Data ligne ALBATROSS capteur AQUADOPP - deploiement 2021
Id,Date,Profondeur,Latitude,Longitude,X_East,Y_North,Z_Up,Amplitude_X,Amplitude_Y,Amplitude_Z,Batterie,SoundSpeed,Heading,Pitch,Roll,Pressure,Temperature,Speed,Direction
, , m, degrees North, degrees East, m.s-1, m.s-1,m.s-1, 1, 1, 1, Volt, m.s-1, degree, degree, degree, dbar, degree_C, m.s-1, degree
11,2022-02-07T22:00:00,2200.0,42.79,6.0312,0.018,-0.025,0.007,55.0,57.0,56.0,12.3,1504.2,169.3,-0.3,0.0,2192.861,13.16,0.03,144.2
11,2022-02-07T22:30:00,2200.0,42.79,6.0312,0.008,-0.011,0.004,57.0,58.0,57.0,12.3,1504.2,166.6,-0.3,0.0,2192.845,13.16,0.013,144.0
11,2022-02-07T23:00:00,2200.0,42.79,6.0312,0.008,-0.029,0.003,56.0,56.0,63.0,12.3,1504.2,171.5,-0.4,0.2,2192.871,13.16,0.03,164.6
11,2022-02-07T23:30:00,2200.0,42.79,6.0312,0.002,-0.012,0.021,54.0,58.0,58.0,12.3,1504.2,174.7,-0.4,-0.1,2192.89,13.16,0.012,170.5
11,2022-02-08T00:00:00,2200.0,42.79,6.0312,0.015,-0.024,0.001,53.0,58.0,59.0,12.3,1504.2,173.6,-0.5,0.2,2192.918,13.16,0.028,148.0
11,2022-02-08T00:30:00,2200.0,42.79,6.0312,0.015,-0.032,0.014,54.0,57.0,57.0,12.3,1504.2,177.1,-0.1,-0.2,2192.889,13.16,0.035,154.9
11,2022-02-08T01:00:00,2200.0,42.79,6.0312,0.007,-0.035,0.002,53.0,55.0,59.0,12.3,1504.2,184.8,-0.1,-0.1,2192.92,13.16,0.035,168.7
11,2022-02-08T01:30:00,2200.0,42.79,6.0312,0.006,-0.031,0.023,58.0,60.0,60.0,12.3,1504.2,187.2,-0.1,0.1,2192.869,13.16,0.031,169.0
11,2022-02-08T02:00:00,2200.0,42.79,6.0312,0.0,-0.018,0.008,57.0,57.0,62.0,12.3,1504.2,191.4,-0.1,-0.1,2192.803,13.16,0.018,180.0
11,2022-02-08T02:30:00,2200.0,42.79,6.0312,-0.002,-0.011,0.011,63.0,62.0,61.0,12.3,1504.2,198.5,-0.2,0.2,2192.856,13.16,0.011,190.3
11,2022-02-08T03:00:00,2200.0,42.79,6.0312,0.0,-0.016,-0.002,63.0,63.0,64.0,12.3,1504.2,201.2,-0.3,0.1,2192.897,13.16,0.016,180.0
11,2022-02-08T03:30:00,2200.0,42.79,6.0312,-0.004,-0.019,0.009,62.0,64.0,63.0,12.3,1504.2,206.9,0.0,0.1,2192.863,13.16,0.019,191.9
11,2022-02-08T04:00:00,2200.0,42.79,6.0312,0.0,-0.012,0.008,57.0,62.0,63.0,12.3,1504.2,206.3,-0.3,-0.2,2192.852,13.16,0.012,180.0
11,2022-02-08T04:30:00,2200.0,42.79,6.0312,0.002,-0.023,-0.005,58.0,61.0,62.0,12.3,1504.2,201.4,0.0,0.1,2192.858,13.16,0.023,175.0
11,2022-02-08T05:00:00,2200.0,42.79,6.0312,-0.002,-0.011,0.006,61.0,68.0,66.0,12.3,1504.2,194.1,-0.4,0.1,2192.829,13.16,0.011,190.3
11,2022-02-08T05:30:00,2200.0,42.79,6.0312,0.007,-0.021,0.013,59.0,63.0,65.0,12.3,1504.2,190.1,-0.3,-0.2,2192.852,13.16,0.022,161.6
11,2022-02-08T06:00:00,2200.0,42.79,6.0312,0.006,-0.011,-0.011,63.0,60.0,65.0,12.3,1504.2,182.6,0.0,0.0,2192.854,13.16,0.012,151.4
11,2022-02-08T06:30:00,2200.0,42.79,6.0312,0.014,-0.008,0.002,57.0,62.0,60.0,12.3,1504.2,167.4,0.0,0.1,2192.861,13.16,0.016,119.7
11,2022-02-08T07:00:00,2200.0,42.79,6.0312,0.018,0.0,0.0,56.0,62.0,60.0,12.3,1504.2,164.4,0.0,-0.2,2192.869,13.16,0.018,90.0
11,2022-02-08T07:30:00,2200.0,42.79,6.0312,0.023,-0.011,0.002,57.0,60.0,61.0,12.3,1504.2,161.8,-0.1,-0.1,2192.842,13.16,0.025,115.6
11,2022-02-08T08:00:00,2200.0,42.79,6.0312,0.026,-0.001,0.002,57.0,58.0,61.0,12.3,1504.2,149.5,-0.3,-0.2,2192.849,13.16,0.026,92.2
11,2022-02-08T08:30:00,2200.0,42.79,6.0312,0.014,-0.018,0.016,55.0,61.0,62.0,12.3,1504.2,138.9,-0.2,-0.1,2192.862,13.16,0.022,142.1
11,2022-02-08T09:00:00,2200.0,42.79,6.0312,0.021,-0.012,0.01,56.0,60.0,60.0,12.3,1504.2,135.9,-0.3,-0.2,2192.919,13.16,0.024,119.7
11,2022-02-08T09:30:00,2200.0,42.79,6.0312,0.022,-0.009,0.009,55.0,57.0,60.0,12.3,1504.2,136.8,-0.2,0.0,2192.881,13.16,0.023,112.2
11,2022-02-08T10:00:00,2200.0,42.79,6.0312,0.023,0.0,0.008,60.0,65.0,68.0,12.3,1504.2,134.7,0.0,0.0,2192.96,13.16,0.023,90.0
11,2022-02-08T10:30:00,2200.0,42.79,6.0312,0.035,-0.012,0.008,61.0,63.0,65.0,12.3,1504.2,132.2,-0.5,0.2,2193.013,13.16,0.037,108.9
11,2022-02-08T11:00:00,2200.0,42.79,6.0312,0.021,-0.009,0.0,63.0,61.0,69.0,12.3,1504.2,136.1,-0.3,-0.2,2192.986,13.16,0.022,113.2
11,2022-02-08T11:30:00,2200.0,42.79,6.0312,0.03,-0.008,0.003,63.0,66.0,67.0,12.3,1504.2,147.7,0.0,-0.1,2192.993,13.16,0.031,104.9
11,2022-02-08T12:00:00,2200.0,42.79,6.0312,0.022,-0.017,0.006,62.0,66.0,65.0,12.3,1504.2,145.0,-0.4,-0.2,2192.977,13.16,0.027,127.7
11,2022-02-08T12:30:00,2200.0,42.79,6.0312,0.025,-0.009,0.01,62.0,61.0,64.0,12.3,1504.2,128.7,-0.4,-0.1,2192.96,13.16,0.026,109.8
11,2022-02-08T13:00:00,2200.0,42.79,6.0312,0.01,-0.012,0.003,58.0,60.0,66.0,12.3,1504.2,137.9,-0.1,0.1,2192.974,13.16,0.015,140.2
11,2022-02-08T13:30:00,2200.0,42.79,6.0312,0.026,-0.007,0.009,59.0,62.0,62.0,12.3,1504.3,133.7,-0.3,-0.2,2192.968,13.17,0.026,105.1
11,2022-02-08T14:00:00,2200.0,42.79,6.0312,0.029,0.003,0.018,62.0,66.0,66.0,12.3,1504.3,136.6,-0.3,-0.2,2192.974,13.17,0.029,84.1
11,2022-02-08T14:30:00,2200.0,42.79,6.0312,0.027,-0.007,-0.007,65.0,65.0,69.0,12.3,1504.3,137.6,-0.1,0.1,2192.957,13.17,0.027,104.5
11,2022-02-08T15:30:00,2200.0,42.79,6.0312,0.012,0.012,0.023,63.0,67.0,69.0,12.3,1504.3,141.5,-0.3,-0.2,2192.942,13.17,0.016,45.0
11,2022-02-08T16:00:00,2200.0,42.79,6.0312,0.02,0.017,0.008,62.0,67.0,68.0,12.3,1504.3,147.9,-0.3,-0.2,2192.93,13.17,0.026,49.6
11,2022-02-08T16:30:00,2200.0,42.79,6.0312,0.007,0.024,0.004,64.0,67.0,66.0,12.3,1504.3,149.9,-0.1,-0.1,2192.869,13.17,0.025,16.3
11,2022-02-08T17:00:00,2200.0,42.79,6.0312,0.008,0.022,0.016,62.0,65.0,65.0,12.3,1504.3,148.2,-0.3,0.1,2192.893,13.17,0.023,20.0
11,2022-02-08T17:30:00,2200.0,42.79,6.0312,0.016,0.022,0.004,64.0,65.0,69.0,12.3,1504.3,146.6,-0.2,-0.2,2192.871,13.17,0.027,36.0
11,2022-02-08T18:00:00,2200.0,42.79,6.0312,0.013,0.012,-0.005,61.0,64.0,67.0,12.3,1504.3,145.6,-0.4,0.2,2192.863,13.17,0.017,47.3
11,2022-02-08T18:30:00,2200.0,42.79,6.0312,0.018,0.016,0.011,62.0,64.0,66.0,12.3,1504.3,136.8,0.0,0.1,2192.857,13.17,0.024,48.4
11,2022-02-08T19:00:00,2200.0,42.79,6.0312,0.02,0.02,-0.012,61.0,63.0,64.0,12.3,1504.3,135.4,-0.4,-0.2,2192.829,13.17,0.028,45.0
11,2022-02-08T19:30:00,2200.0,42.79,6.0312,0.024,0.026,-0.006,63.0,66.0,67.0,12.3,1504.3,130.8,-0.1,-0.1,2192.881,13.17,0.035,42.7
11,2022-02-08T20:00:00,2200.0,42.79,6.0312,0.017,0.018,0.011,61.0,65.0,65.0,12.3,1504.3,125.1,-0.5,-0.2,2192.863,13.17,0.024,43.4
11,2022-02-08T20:30:00,2200.0,42.79,6.0312,0.017,0.012,-0.01,62.0,65.0,67.0,12.3,1504.3,125.5,-0.1,-0.1,2192.833,13.17,0.02,54.8
11,2022-02-08T21:00:00,2200.0,42.79,6.0312,0.029,0.008,0.0,62.0,64.0,66.0,12.3,1504.3,119.2,-0.4,-0.2,2192.879,13.17,0.03,74.6
